Home > Weather > Suzuka > Past weeks

Flag for Japan Past Weather in Suzuka, Japan — Yesterday and Last 2 Weeks

Now
64 °F

Mild.


Feels Like: 64 °F
Forecast: 63 / 70 °F
Wind: 12 mph from Northeast

Location: Tsu

Current Time: May 30, 2016 at 6:23:32 AM

Latest Report: May 30, 2016 at 5:00 AM


Visibility: N/A

Pressure: 29.65 "Hg

Humidity: 89%

Dew Point: 61 °F

Location of SuzukaLocation

Past Weather in Suzuka — Graph

°F

Suzuka Temperature Yesterday

Maximum temperature yesterday: 74 °F (at 12:00 PM)
Minimum temperature yesterday: 64 °F (at 4:00 AM)
Average temperature yesterday: 69 °F

High & Low Weather Summary for the Past Weeks

 TemperatureHumidityPressure
High84 °F (May 23, 6:00 PM)96% (May 27, 1:00 AM)30.20 "Hg (May 27, 1:00 AM)
Low56 °F (May 17, 7:00 AM)19% (May 21, 4:00 PM)29.62 "Hg (May 30, 3:00 AM)
Average70 °F69%29.94 "Hg
* Reported May 15 5:00 AM — May 30 5:00 AM, Suzuka, Weather by CustomWeather, © 2016

Note: Actual official high and low records may vary slightly from our data, if they occured in-between our weather recording intervals... More about our weather records

Advertising

Suzuka Weather History for the Previous 24 Hours

Scroll right to see more
 ConditionsComfort  
Time TempWeatherWind HumidityBarometerVisibility
5:00 AM
Mon, May 30
64 °FMild.12 mph89%29.65 "HgN/A
4:00 AM65 °FMild.14 mph90%29.63 "HgN/A
3:00 AM65 °FMild.12 mph91%29.62 "HgN/A
2:00 AM65 °FMild.7 mph90%29.63 "HgN/A
1:00 AM65 °FMild.9 mph90%29.65 "HgN/A
12:00 AM65 °FMild.9 mph90%29.67 "HgN/A
11:00 PM
Sun, May 29
65 °FMild.6 mph86%29.71 "HgN/A
10:00 PM66 °FMild.8 mph83%29.73 "HgN/A
9:00 PM68 °FLight rain. Overcast.7 mph89%29.73 "Hg3 mi
8:00 PM69 °FMild.8 mph83%29.72 "HgN/A
7:00 PM69 °FMild.7 mph80%29.74 "HgN/A
6:00 PM70 °FMild.10 mph75%29.73 "HgN/A
5:00 PM72 °FMild.12 mph68%29.72 "HgN/A
4:00 PM72 °FMild.14 mph64%29.72 "HgN/A
3:00 PM74 °FOvercast.13 mph67%29.72 "Hg9 mi
2:00 PM74 °FMild.14 mph68%29.74 "HgN/A
1:00 PM74 °FMild.16 mph73%29.75 "HgN/A
12:00 PM74 °FMild.12 mph74%29.75 "HgN/A
11:00 AM73 °FMild.9 mph71%29.76 "HgN/A
10:00 AM72 °FMild.8 mph77%29.78 "HgN/A
9:00 AM70 °FOvercast.3 mph81%29.79 "Hg2 mi
8:00 AM68 °FMild.5 mph84%29.80 "HgN/A
7:00 AM68 °FMild.3 mph88%29.79 "HgN/A
6:00 AM65 °FMild.3 mph94%29.80 "HgN/A
Weather by CustomWeather, © 2016

See weather overviewHow to use our weather pages